Retour au catalogue

STARLINK-36615

ActifCommunicationsVLEO
NORAD 67621·PAYLOAD·🇺🇸 United States

Lancé Jan 30, 2026 depuis Cape Canaveral Space Force Station

Loading…

Prochains Passages (prochaines 24 heures)

TLE

FraisSource: CelesTrak SupGP

Époque: Sep 14, 2026, 21:19 UTC

1 67621C 26020E   26257.88868056 -.00044224  00000+0 -16018-2 0  2575
2 67621  43.0011 151.6178 0001303 267.6178 149.7420 15.27601197    13

Suivez STARLINK-36615 en temps réel avec AllMySat

Download on the App Store